星链-3156 (STARLINK-3156 )

导读 | 星芒AI

STARLINK-3156 是美国太空探索技术公司(SpaceX)星链(Starlink)卫星互联网项目中的一颗低轨通信卫星。它属于星链计划的第三批发射任务,旨在通过在近地轨道部署大量卫星,为全球用户提供高速、低延迟的互联网服务。该卫星采用可重复使用设计,具备先进的通信技术和自动避障功能,有助于提升全球网络覆盖,特别是在偏远和网络基础设施薄弱的地区。

基本信息
目录编号:
49458
目录名称:
STARLINK-3156
国际标识:
2021-104BC
轨道中心:
EARTH
卫星名称:
星链-3156
卫星全名:
星链-3156 (STARLINK-3156 )
卫星状态:
在轨 (已飞行1449 天)
发射日期:
2021-11-13 UTC
国别 :
美国 (US)
星等 :
--
轨道信息
数据来源 国际轨道数据
星历时间: 2025-11-01T02:17:02+0800
1天前
查看轨道信息
半长轴: 6917.887km
偏心率: 0.0001311
轨道倾角: 53.219°
近地点辐角 88.256°
升交点赤经 77.897°
平近点角 271.858°
近地点: 538.845km
远地点: 540.659km
周期: 95.438分钟
每日圈数: 15.08838
详细信息
固有亮度:
5
最大亮度:
2.5
卫星平台:
Starlink v1.5
覆盖范围:
全球
运营商:
太空探索技术公司
运营商所在国:
美国
制造商(研发单位):
太空探索技术公司
制造商所在国:
美国
使用方式:
暂无
卫星简介
星链(Starlink)计划是由太空探索技术公司(SpaceX)提出的一个巨型低轨卫星互联网星座项目,计划在2019年至2024年间在太空搭建由约1.2万颗卫星组成的“星链”网络,其中1584颗将部署在地球上空550千米处的近地轨道,并从2020年开始工作。该卫星仍在工作。
2D轨道图
3D轨道图
轨道高度分析图
轨道倾角分析图
轨道综合分析图
查看轨道综合分析图